Location: Newark
(51.0500°N, 12.4500°E)
Time: 16:36:04
(UTC+00:00)

X-37B - Pass Details

Date: 13 March 2021
Orbit: 380 x 394 km, 45.0° (Epoch: 07 April)

Event Time Altitude Azimuth Distance (km) Brightness Sun altitude
Rises 18:56:00 0° 230° (SW) 2,268 4.9 -17.0°
Reaches altitude 10° 18:58:24 10° 213° (SSW) 1,418 3.6 -17.3°
Enters shadow 19:00:00 18° 185° (S) 1,037 2.6 -17.6°
